Location: Arthez
(43.0833°N, 0.2500°W)
Time: 21:30:45
(UTC+00:00)

Cosmos 2173 Rocket - Pass Details

Date: 23 October 2021
Orbit: 945 x 1000 km, 83.0° (Epoch: 06 December)

Event Time Altitude Azimuth Distance (km) Brightness Sun altitude
Rises 19:49:51 0° 193° (SSW) 3,626 7.0 -30.6°
Reaches altitude 10° 19:52:20 10° 195° (SSW) 2,692 6.3 -31.0°
Maximum altitude 19:58:29 71° 279° (W) 1,030 4.1 -32.1°
Drops below altitude 10° 20:04:47 10° 4° (N) 2,748 6.5 -33.2°
Sets 20:07:21 0° 6° (N) 3,708 7.2 -33.6°
